DW3807 Weather Reports


time (UTC)temp
C
wind
direction
speed
KPH
gust
KPH
rain 1hr
cm
rain 24hr
cm
rain mn
cm
humidity
%
barometer
mb
20260505112018 9 276 1.6 4.8 0.00 0.08 0.00 79 1004.6
20260505111518 9 300 3.2 9.7 0.00 0.08 0.00 78 1004.4
20260505111039 9 213 3.2 8.0 0.00 0.08 0.00 78 1004.7
20260505110518 9 242 3.2 6.4 0.00 0.08 0.00 78 1004.6
20260505102059 10 223 1.6 4.8 0.00 0.08 0.00 75 1003.6
20260505101519 10 303 3.2 8.0 0.00 0.08 0.00 75 1003.4
20260505101021 10 99 1.6 4.8 0.00 0.08 0.00 75 1003.5
20260505100519 10 58 1.6 4.8 0.00 0.08 0.00 75 1003.6
20260505100039 10 218 1.6 4.8 0.00 0.08 0.00 75 1003.6
20260505095516 10 188 1.6 6.4 0.00 0.08 0.00 75 1003.3
20260505095022 10 253 3.2 6.4 0.00 0.08 0.00 74 1003.1
20260505094521 10 284 1.6 8.0 0.00 0.08 0.00 75 1002.9
20260505094019 10 209 1.6 6.4 0.00 0.08 0.00 75 1002.7
20260505093519 10 202 1.6 3.2 0.00 0.08 0.00 75 1002.7
20260505093019 10 327 1.6 4.8 0.00 0.08 0.00 75 1002.7
20260505092520 10 232 1.6 3.2 0.00 0.08 0.00 76 1002.7
20260505092021 10 134 1.6 4.8 0.00 0.08 0.00 76 1002.5
20260505091520 10 180 1.6 4.8 0.00 0.08 0.00 77 1002.7
20260505091020 10 53 1.6 3.2 0.00 0.08 0.00 77 1002.7
20260505090520 10 179 1.6 8.0 0.00 0.08 0.00 77 1002.5
20260505090017 10 311 1.6 4.8 0.00 0.08 0.00 77 1002.1
20260505085521 10 286 1.6 8.0 0.00 0.08 0.00 77 1002.1
20260505085023 10 150 1.6 6.4 0.00 0.08 0.00 78 1002.3
20260505084540 10 165 1.6 3.2 0.00 0.08 0.00 78 1002.3
20260505084044 10 183 1.6 4.8 0.00 0.08 0.00 77 1002.0
20260505083520 10 303 1.6 6.4 0.00 0.08 0.00 77 1001.9
20260505083020 11 149 1.6 3.2 0.00 0.08 0.00 77 1001.8
20260505082522 11 145 1.6 4.8 0.00 0.08 0.00 77 1001.7
20260505082038 11 321 1.6 6.4 0.00 0.08 0.00 77 1001.7
20260505081539 11 292 1.6 4.8 0.00 0.08 0.00 77 1001.7
20260505081018 11 173 3.2 6.4 0.00 0.08 0.00 76 1001.5
20260505080520 11 296 3.2 9.7 0.00 0.08 0.00 76 1001.7
20260505080019 11 312 1.6 8.0 0.00 0.08 0.00 77 1001.4
20260505075518 11 276 3.2 12.9 0.00 0.08 0.00 77 1001.4
20260505075043 11 139 1.6 6.4 0.00 0.08 0.00 79 1001.5
20260505074519 11 293 3.2 6.4 0.00 0.08 0.00 79 1001.5
20260505074038 11 146 1.6 4.8 0.00 0.08 0.00 79 1001.4
20260505073518 11 326 3.2 8.0 0.00 0.08 0.00 79 1001.5
20260505073021 11 79 3.2 9.7 0.00 0.08 0.00 81 1001.6
20260505072518 12 250 3.2 9.7 0.00 0.08 0.00 81 1001.5
20260505072018 12 245 3.2 6.4 0.00 0.08 0.00 81 1001.6
20260505071559 12 200 3.2 8.0 0.00 0.08 0.00 81 1001.5
20260505071020 12 225 3.2 11.3 0.00 0.08 0.00 81 1001.5
20260505070520 12 267 3.2 8.0 0.00 0.08 0.00 81 1001.2
20260505070019 12 178 3.2 8.0 0.00 0.08 0.00 81 1000.9
20260505065520 12 217 3.2 9.7 0.00 0.08 0.00 82 1001.0
20260505065039 12 290 3.2 11.3 0.00 0.08 0.00 84 1001.1
20260505064519 13 299 1.6 4.8 0.00 0.08 0.00 85 1000.9
20260505064020 13 299 1.6 6.4 0.00 0.08 0.00 86 1000.7
20260505063520 13 159 3.2 6.4 0.00 0.08 0.00 86 1000.8
20260505063019 13 151 1.6 4.8 0.00 0.08 0.00 87 1000.9
20260505062519 13 153 3.2 6.4 0.00 0.08 0.00 87 1000.9
20260505062021 13 277 1.6 9.7 0.00 0.08 0.00 87 1000.9
20260505061522 13 3 3.2 8.0 0.00 0.08 0.00 88 1001.0
20260505061016 13 268 3.2 6.4 0.00 0.08 0.00 88 1001.0
20260505060516 13 262 3.2 12.9 0.00 0.08 0.00 88 1000.9
20260505060021 13 292 3.2 9.7 0.00 0.08 0.00 88 1000.6
20260505055519 13 214 1.6 6.4 0.00 0.08 0.00 89 1000.4
20260505055021 13 269 1.6 8.0 0.00 0.08 0.00 88 1000.4
20260505054521 13 319 1.6 3.2 0.00 0.08 0.00 88 1000.2
20260505054020 13 106 1.6 3.2 0.00 0.08 0.00 87 1000.1
20260505053520 13 343 1.6 3.2 0.00 0.08 0.00 87 1000.2
20260505053017 14 292 1.6 3.2 0.00 0.08 0.00 87 1000.2
20260505052520 14 324 1.6 3.2 0.00 0.08 0.00 86 1000.2
20260505052017 14 207 1.6 3.2 0.00 0.08 0.00 86 1000.1
20260505051517 14 126 1.6 3.2 0.00 0.08 0.00 85 1000.2
20260505051022 15 328 1.6 3.2 0.00 0.08 0.00 85 1000.2
20260505050520 15 76 1.6 3.2 0.00 0.08 0.00 85 1000.1
20260505041520 16 327 3.2 8.0 0.00 0.08 0.00 82 999.7
20260505041019 16 326 1.6 4.8 0.00 0.08 0.00 81 999.6
20260505040519 16 319 3.2 6.4 0.00 0.08 0.00 81 999.5
20260505040018 16 241 1.6 6.4 0.00 0.08 0.00 80 999.5
20260505035520 16 300 3.2 6.4 0.00 0.08 0.08 79 999.5
20260505035020 16 227 1.6 6.4 0.00 0.08 0.08 79 999.4
20260505034518 16 243 3.2 6.4 0.00 0.08 0.08 79 999.5
20260505034040 16 252 3.2 9.7 0.00 0.08 0.08 79 999.3
20260505033516 16 248 3.2 6.4 0.00 0.08 0.08 79 999.0
20260505033056 16 211 1.6 4.8 0.00 0.08 0.08 79 999.0
20260505032520 16 212 3.2 6.4 0.00 0.08 0.08 78 998.9
20260505032020 16 207 3.2 6.4 0.00 0.08 0.08 78 998.9
20260505031519 16 200 3.2 6.4 0.05 0.08 0.08 79 998.9
20260505031019 16 211 3.2 6.4 0.08 0.08 0.08 79 998.8
20260505030520 16 209 1.6 6.4 0.08 0.08 0.08 78 998.8
20260505030020 16 199 3.2 6.4 0.08 0.08 0.08 78 998.6
20260505025519 16 196 1.6 4.8 0.08 0.08 0.08 78 998.5
20260505025019 16 197 3.2 6.4 0.08 0.08 0.08 78 998.5
20260505024520 16 207 3.2 9.7 0.08 0.08 0.08 79 998.5
20260505024019 16 203 4.8 12.9 0.08 0.08 0.08 79 998.6
20260505023521 16 199 4.8 9.7 0.08 0.08 0.08 80 998.7
20260505023041 17 202 4.8 11.3 0.08 0.08 0.08 80 998.8
20260505022520 17 216 4.8 9.7 0.08 0.08 0.08 80 998.9
20260505022020 18 201 8.0 17.7 0.08 0.08 0.08 76 998.5
20260505021540 19 205 4.8 11.3 0.05 0.05 0.05 69 999.6
20260505021023 20 254 4.8 14.5 0.00 0.00 0.00 67 999.5
20260505020520 20 245 3.2 9.7 0.00 0.00 0.00 67 999.0
20260505020021 20 238 4.8 9.7 0.00 0.00 0.00 67 998.5
20260505015522 20 213 4.8 12.9 0.00 0.00 0.00 68 998.1
20260505015020 20 207 4.8 11.3 0.00 0.00 0.00 67 998.0
20260505014519 20 201 4.8 14.5 0.00 0.00 0.00 67 998.0
20260505014017 20 217 3.2 8.0 0.00 0.00 0.00 67 998.0
20260505013522 20 196 3.2 9.7 0.00 0.00 0.00 67 997.9
20260505013040 20 209 3.2 8.0 0.00 0.00 0.00 66 997.9
20260505012521 20 216 3.2 8.0 0.00 0.00 0.00 66 997.9
20260505012023 20 222 3.2 6.4 0.00 0.00 0.00 66 997.9
20260505011521 20 214 3.2 8.0 0.00 0.00 0.00 65 997.8
20260505011021 21 211 3.2 6.4 0.00 0.00 0.00 64 997.7
20260505010518 21 203 4.8 14.5 0.00 0.00 0.00 63 997.6
20260505010039 21 218 4.8 9.7 0.00 0.00 0.00 61 997.7
20260505005519 21 210 4.8 12.9 0.00 0.00 0.00 60 997.7
20260505005018 21 202 4.8 8.0 0.00 0.00 0.00 58 997.7
20260505004523 21 218 3.2 8.0 0.00 0.00 0.00 57 997.7
20260505004021 21 220 3.2 8.0 0.00 0.00 0.00 56 997.7
20260505003521 20 230 3.2 6.4 0.00 0.00 0.00 55 997.6
20260505003020 20 187 3.2 6.4 0.00 0.00 0.00 54 997.5
20260505002520 21 313 1.6 4.8 0.00 0.00 0.00 53 997.4
20260505002058 21 196 3.2 9.7 0.00 0.00 0.00 53 997.3
20260505001518 21 337 1.6 6.4 0.00 0.00 0.00 53 997.2
20260505001020 21 335 1.6 4.8 0.00 0.00 0.00 53 997.3
20260505000520 21 296 1.6 3.2 0.00 0.00 0.00 52 997.3
20260505000019 21 338 1.6 4.8 0.00 0.00 0.00 51 997.3
20260504235518 21 8 0.0 3.2 0.00 0.00 0.00 51 997.4
20260504235020 22 11 1.6 3.2 0.00 0.00 0.00 51 997.5
20260504234519 22 5 1.6 4.8 0.00 0.00 0.00 51 997.5
20260504234020 22 45 1.6 3.2 0.00 0.00 0.00 51 997.6
20260504233517 22 42 1.6 1.6 0.00 0.00 0.00 50 997.7
20260504233035 22 24 1.6 3.2 0.00 0.00 0.00 50 997.7
20260504232519 22 14 1.6 4.8 0.00 0.00 0.00 50 997.8
20260504232019 22 8 1.6 3.2 0.00 0.00 0.00 49 997.9
20260504231543 22 323 1.6 8.0 0.00 0.00 0.00 48 997.9
20260504231039 22 288 3.2 14.5 0.00 0.00 0.00 48 998.0
20260504230520 22 289 3.2 9.7 0.00 0.00 0.00 48 998.1
20260504230021 23 320 1.6 4.8 0.00 0.00 0.00 47 998.2
20260504225519 23 293 4.8 11.3 0.00 0.00 0.00 47 998.3
20260504225021 23 300 4.8 11.3 0.00 0.00 0.00 47 998.4
20260504224520 23 307 3.2 11.3 0.00 0.00 0.00 46 998.4
20260504224021 23 276 3.2 8.0 0.00 0.00 0.00 46 998.5
20260504223537 23 217 3.2 9.7 0.00 0.00 0.00 46 998.6
20260504223057 23 294 3.2 12.9 0.00 0.00 0.00 46 998.7
20260504222524 23 275 3.2 14.5 0.00 0.00 0.00 46 998.7
20260504222020 23 269 4.8 16.1 0.00 0.00 0.00 46 998.7
20260504221522 23 276 3.2 9.7 0.00 0.00 0.00 45 998.7
20260504221020 23 297 3.2 9.7 0.00 0.00 0.00 45 998.7
20260504220522 23 336 3.2 12.9 0.00 0.00 0.00 45 998.8
20260504220045 23 249 3.2 8.0 0.00 0.00 0.00 45 998.9
20260504215523 23 236 3.2 6.4 0.00 0.00 0.00 44 998.9
20260504215038 23 267 4.8 11.3 0.00 0.00 0.00 45 998.9
20260504214518 23 281 3.2 8.0 0.00 0.00 0.00 44 999.0
20260504214021 23 231 4.8 11.3 0.00 0.00 0.00 44 999.0
20260504213518 23 278 4.8 16.1 0.00 0.00 0.00 44 999.2
20260504213018 23 256 4.8 12.9 0.00 0.00 0.00 43 999.1
20260504212522 23 244 3.2 12.9 0.00 0.00 0.00 44 999.2
20260504212043 23 250 4.8 11.3 0.00 0.00 0.00 43 999.3
20260504211522 23 259 4.8 17.7 0.00 0.00 0.00 43 999.4
20260504211019 24 255 6.4 14.5 0.00 0.00 0.00 42 999.5
20260504210520 23 236 3.2 9.7 0.00 0.00 0.00 42 999.5
20260504210019 24 256 6.4 19.3 0.00 0.00 0.00 42 999.5
20260504205519 24 264 6.4 16.1 0.00 0.00 0.00 43 999.6
20260504205019 24 242 4.8 16.1 0.00 0.00 0.00 43 999.7
20260504204520 23 240 4.8 16.1 0.00 0.00 0.00 42 999.8
20260504204019 23 275 6.4 16.1 0.00 0.00 0.00 41 999.8
20260504203522 24 250 6.4 16.1 0.00 0.00 0.00 40 999.8
20260504203021 24 227 6.4 17.7 0.00 0.00 0.00 42 999.8
20260504202519 24 195 6.4 12.9 0.00 0.00 0.00 41 999.8
20260504202019 24 167 3.2 9.7 0.00 0.00 0.00 41 999.8
20260504201519 24 242 6.4 14.5 0.00 0.00 0.00 41 999.8
20260504201022 24 251 6.4 12.9 0.00 0.00 0.00 41 999.7
20260504200519 24 256 4.8 12.9 0.00 0.00 0.00 42 999.8
20260504200019 24 255 6.4 17.7 0.00 0.00 0.00 41 999.8
20260504195521 24 273 4.8 14.5 0.00 0.00 0.00 42 999.8
20260504195019 24 235 6.4 16.1 0.00 0.00 0.00 42 999.8
20260504194541 24 247 6.4 12.9 0.00 0.00 0.00 41 999.9
20260504194016 25 282 6.4 16.1 0.00 0.00 0.00 41 999.9
20260504193520 25 224 4.8 11.3 0.00 0.00 0.00 40 1000.0
20260504193019 25 263 4.8 14.5 0.00 0.00 0.00 40 1000.0
20260504192521 25 224 6.4 17.7 0.00 0.00 0.00 39 1000.0
20260504192024 25 261 4.8 14.5 0.00 0.00 0.00 39 1000.0
20260504191523 25 216 6.4 16.1 0.00 0.00 0.00 38 1000.0
20260504191020 25 231 4.8 12.9 0.00 0.00 0.00 39 1000.1
20260504190020 25 199 4.8 12.9 0.00 0.00 0.00 39 1000.0
20260504185520 25 230 4.8 11.3 0.00 0.00 0.00 39 1000.0
20260504185018 25 216 6.4 14.5 0.00 0.00 0.00 38 1000.0
20260504184517 25 223 4.8 14.5 0.00 0.00 0.00 40 1000.1
20260504184017 24 221 6.4 14.5 0.00 0.00 0.00 39 1000.0
20260504183523 24 257 6.4 14.5 0.00 0.00 0.00 38 1000.0
20260504183023 24 258 6.4 16.1 0.00 0.00 0.00 37 1000.2
20260504182519 24 238 6.4 14.5 0.00 0.00 0.00 38 1000.2
20260504182017 24 280 6.4 14.5 0.00 0.00 0.00 38 1000.3
20260504181521 24 243 4.8 11.3 0.00 0.00 0.00 37 1000.4
20260504181021 24 237 4.8 12.9 0.00 0.00 0.00 37 1000.3
20260504180520 23 262 4.8 12.9 0.00 0.00 0.00 37 1000.3
20260504180022 23 225 4.8 12.9 0.00 0.00 0.00 37 1000.4
20260504175518 24 245 4.8 11.3 0.00 0.00 0.00 37 1000.4
20260504175018 24 254 6.4 12.9 0.00 0.00 0.00 37 1000.6
20260504174518 24 219 6.4 14.5 0.00 0.00 0.00 37 1000.7
20260504174018 24 240 6.4 16.1 0.00 0.00 0.00 37 1000.7
20260504173520 24 222 4.8 9.7 0.00 0.00 0.00 37 1000.8
20260504173019 24 237 4.8 12.9 0.00 0.00 0.00 38 1000.9
20260504172518 24 252 6.4 19.3 0.00 0.00 0.00 38 1001.0
20260504172018 24 252 6.4 17.7 0.00 0.00 0.00 37 1001.0
20260504171518 24 242 4.8 14.5 0.00 0.00 0.00 39 1001.1
20260504171020 24 277 4.8 9.7 0.00 0.00 0.00 38 1001.2
20260504170519 23 300 6.4 17.7 0.00 0.00 0.00 39 1001.2
20260504151017 20 207 3.2 9.7 0.00 0.00 0.00 55 1002.6
20260504150518 20 205 3.2 9.7 0.00 0.00 0.00 55 1002.7
20260504141018 17 182 3.2 8.0 0.00 0.00 0.00 64 1003.4
20260504140518 17 204 3.2 6.4 0.00 0.00 0.00 65 1003.5
20260504130519 14 196 3.2 6.4 0.00 0.00 0.00 74 1004.1